This demonstration page uses our WeatherBlox Daily Observations layout. Learn more.

40.92945, -100.16068

Hourly Observations for December 28, 2018

Temp ( °F °C ) Dew Point ( °F °C ) Humidity (%) Winds ( mph kmh ) Pressure ( in mb ) Visibility ( mi km ) Precip ( " mm )
12:15 am 00:15 Windy with Snow Likely 19 -7 15 -9.7 81 81 NNW 28 44 30.12 1020 2.5 4.02336 0 0
12:35 am 00:35 Cloudy 19 -7.3 14 -10 81 81 NNW 18 30 30.12 1020 7 11.265408 0 0
12:55 am 00:55 Mostly Cloudy 19 -7.3 13 -10.4 79 79 NNW 22 35 30.12 1020 7 11.265408 0 0
1:15 am 01:15 Mostly Cloudy with Haze 19 -7.5 13 -10.5 79 79 NNW 29 46 30.12 1020 5 8.04672 0 0
1:35 am 01:35 Cloudy with Haze 18 -7.6 13 -10.5 80 80 NNW 21 33 30.15 1021 4 6.437376 0 0
1:55 am 01:55 Cloudy with Haze 18 -7.8 13 -10.7 80 80 NW 25 41 30.15 1021 5 8.04672 0 0
2:15 am 02:15 Mostly Cloudy with Haze 18 -8 12 -11 79 79 NNW 25 41 30.21 1023 5 8.04672 0 0
2:35 am 02:35 Mostly Cloudy with Haze 18 -7.7 13 -10.8 79 79 NNW 22 35 30.18 1022 5 8.04672 0 0
2:55 am 02:55 Windy with Snow Likely 18 -7.7 12 -10.9 78 78 NNW 23 37 30.18 1022 7 11.265408 0 0
3:15 am 03:15 Windy with Snow Likely 18 -8 12 -11 79 79 NNW 26 43 30.24 1024 4 6.437376 0 0
3:35 am 03:35 Cloudy with Haze 18 -8 12 -11.1 79 79 NNW 23 37 30.24 1024 5 8.04672 0 0
3:55 am 03:55 Mostly Cloudy with Haze 17 -8.2 11 -11.5 77 77 NNW 29 46 30.24 1024 4 6.437376 0 0
4:15 am 04:15 Hazy 17 -8.6 11 -11.9 77 77 NNW 26 43 30.24 1024 2.5 4.02336 0 0
4:35 am 04:35 Windy with Snow Likely 16 -8.8 10 -12 78 78 NNW 21 33 30.24 1024 10 16.09344 0 0
4:55 am 04:55 Partly Cloudy 16 -8.8 10 -12 78 78 NNW 26 43 30.24 1024 7 11.265408 0 0
5:15 am 05:15 Partly Cloudy 16 -9 10 -12.4 77 77 NNW 22 35 30.24 1024 10 16.09344 0 0
5:35 am 05:35 Mostly Cloudy 16 -9 10 -12 79 79 NW 17 28 30.24 1024 10 16.09344 0 0
5:55 am 05:55 Cloudy 17 -8.5 11 -11.7 78 78 NNW 20 31 30.24 1024 10 16.09344 0 0
6:15 am 06:15 Cloudy 17 -8.2 11 -11.5 77 77 NNW 21 33 30.27 1025 10 16.09344 0 0
6:35 am 06:35 Cloudy 17 -8.1 12 -11.2 79 79 NNW 21 33 30.27 1025 7 11.265408 0 0
6:55 am 06:55 Cloudy 18 -8 12 -11.2 78 78 NNW 20 31 30.3 1026 7 11.265408 0 0
7:15 am 07:15 Cloudy with Haze 17 -8.1 12 -11.3 78 78 NNW 25 41 30.3 1026 5 8.04672 0 0
7:35 am 07:35 Cloudy 17 -8.2 11 -11.5 77 77 NNW 25 41 30.33 1027 7 11.265408 0 0
7:55 am 07:55 Cloudy with Haze 17 -8.5 11 -11.5 79 79 NNW 18 30 30.33 1027 5 8.04672 0 0
8:15 am 08:15 Cloudy 17 -8.5 11 -11.6 79 79 NNW 18 30 30.33 1027 10 16.09344 0 0
8:35 am 08:35 Mostly Cloudy 17 -8.5 11 -11.8 77 77 NNW 18 30 30.36 1028 10 16.09344 0 0
8:55 am 08:55 Partly Cloudy 17 -8.3 11 -11.8 76 76 NNW 21 33 30.36 1028 10 16.09344 0 0
9:15 am 09:15 Sunny 17 -8.5 10 -12 76 76 NNW 20 31 30.36 1028 10 16.09344 0 0
9:35 am 09:35 Partly Cloudy 18 -8 11 -11.6 76 76 NNW 18 30 30.36 1028 10 16.09344 0 0
9:55 am 09:55 Cloudy 18 -7.7 12 -11.3 76 76 NNW 25 41 30.36 1028 10 16.09344 0 0
10:15 am 10:15 Cloudy 18 -7.7 11 -11.6 74 74 NNW 23 37 30.36 1028 7 11.265408 0 0
10:35 am 10:35 Mostly Cloudy 18 -7.7 11 -11.7 73 73 NNW 23 37 30.39 1029 10 16.09344 0 0
10:55 am 10:55 Sunny 19 -7.5 11 -11.6 73 73 NNW 28 44 30.39 1029 10 16.09344 0 0
11:15 am 11:15 Sunny 19 -7.5 11 -11.7 72 72 NNW 22 35 30.39 1029 10 16.09344 0 0
11:35 am 11:35 Sunny 19 -7.3 11 -11.9 70 70 NNW 24 39 30.36 1028 10 16.09344 0 0
11:55 am 11:55 Sunny 19 -7.3 11 -11.8 71 71 NNW 22 35 30.36 1028 10 16.09344 0 0
12:15 pm 12:15 Sunny 19 -7.2 10 -12 69 69 NNW 22 35 30.36 1028 10 16.09344 0 0
12:35 pm 12:35 Sunny 19 -7 11 -11.8 69 69 NNW 17 28 30.36 1028 10 16.09344 0 0
12:55 pm 12:55 Sunny 19 -7 10 -12 68 68 NNW 21 33 30.39 1029 10 16.09344 0 0
1:15 pm 13:15 Sunny 19 -7 10 -12.4 66 66 NNW 20 31 30.39 1029 10 16.09344 0 0
1:35 pm 13:35 Mostly Cloudy 21 -6.3 11 -11.9 65 65 NNW 18 30 30.36 1028 10 16.09344 0 0
1:55 pm 13:55 Cloudy 21 -6.2 11 -11.6 66 66 NNW 18 30 30.36 1028 10 16.09344 0 0
2:15 pm 14:15 Partly Cloudy 21 -6.2 10 -12 64 64 NNW 18 30 30.36 1028 10 16.09344 0 0
2:35 pm 14:35 Mostly Cloudy 21 -6.1 11 -11.8 64 64 NNW 15 24 30.42 1030 10 16.09344 0 0
2:55 pm 14:55 Cloudy 21 -6.2 10 -12 64 64 NNW 15 24 30.36 1028 10 16.09344 0 0
3:15 pm 15:15 Partly Cloudy 21 -6.2 11 -11.7 65 65 NNW 15 24 30.36 1028 10 16.09344 0 0
3:35 pm 15:35 Sunny 21 -6.3 10 -12.2 63 63 NNW 16 26 30.42 1030 10 16.09344 0 0
3:55 pm 15:55 Sunny 20 -6.6 9 -12.6 63 63 NNW 13 20 30.42 1030 10 16.09344 0 0
4:15 pm 16:15 Sunny 19 -7 9 -13 63 63 NW 10 17 30.42 1030 10 16.09344 0 0
4:35 pm 16:35 Sunny 19 -7.5 8 -13.1 65 65 NW 9 15 30.42 1030 10 16.09344 0 0
4:55 pm 16:55 Sunny 18 -8 9 -13 68 68 NNW 10 17 30.42 1030 10 16.09344 0 0
5:15 pm 17:15 Sunny 15 -9.4 8 -13.5 72 72 N 8 13 30.45 1031 10 16.09344 0 0
5:35 pm 17:35 Clear 13 -10.6 6 -14.2 75 75 NNW 6 9 30.45 1031 10 16.09344 0 0
5:55 pm 17:55 Clear 12 -11.3 6 -14.6 77 77 NNW 3 6 30.45 1031 10 16.09344 0 0
6:15 pm 18:15 Clear 9 -12.8 4 -15.7 79 79 Calm 30.5 1033 10 16.09344 0 0
6:35 pm 18:35 Clear 10 -12.1 5 -14.9 80 80 Calm 30.5 1033 10 16.09344 0 0
6:55 pm 18:55 Clear 9 -13 4 -15.8 80 80 Calm 30.5 1033 10 16.09344 0 0
7:15 pm 19:15 Clear 8 -13.1 4 -15.6 82 82 WNW 3 6 30.5 1033 10 16.09344 0 0
7:35 pm 19:35 Clear 8 -13.2 4 -15.6 82 82 WNW 3 6 30.5 1033 10 16.09344 0 0
7:55 pm 19:55 Clear 8 -13.5 4 -15.7 84 84 WNW 5 7 30.53 1034 10 16.09344 0 0
8:15 pm 20:15 Clear 6 -14.5 2 -16.8 83 83 NW 7 11 30.56 1035 10 16.09344 0 0
8:35 pm 20:35 Clear 3 -15.9 0 -18 84 84 WNW 8 13 30.56 1035 10 16.09344 0 0
8:55 pm 20:55 Clear 3 -15.9 -1 -18.1 83 83 NW 6 9 30.56 1035 10 16.09344 0 0
9:15 pm 21:15 Clear 4 -15.4 1 -17.5 84 84 NW 7 11 30.56 1035 10 16.09344 0 0
9:35 pm 21:35 Clear 3 -15.9 -1 -18.2 83 83 NNW 7 11 30.56 1035 10 16.09344 0 0
9:55 pm 21:55 Clear 4 -15.6 0 -17.7 84 84 NW 6 9 30.56 1035 10 16.09344 0 0
10:15 pm 22:15 Clear 3 -16.3 -1 -18.6 83 83 NW 7 11 30.56 1035 10 16.09344 0 0
10:35 pm 22:35 Clear 2 -16.7 -2 -19 83 83 NW 6 9 30.56 1035 10 16.09344 0 0
10:55 pm 22:55 Clear 2 -16.7 -2 -19 83 83 NNW 6 9 30.56 1035 10 16.09344 0 0
11:15 pm 23:15 Clear 1 -17.3 -3 -19.4 84 84 W 8 13 30.59 1036 10 16.09344 0 0
11:35 pm 23:35 Clear 2 -16.8 -2 -19 83 83 WNW 6 9 30.59 1036 10 16.09344 0 0
11:55 pm 23:55 Clear 2 -16.9 -3 -19.2 82 82 W 7 11 30.59 1036 10 16.09344 0 0

Powered by AerisWeather